This demonstration page uses our WeatherBlox Daily Observations layout. Learn more.

Left ArrowRight Arrow

36.19886, -115.1175

Hourly Observations for December 12, 2021

Temp ( °F °C ) Dew Point ( °F °C ) Humidity (%) Winds ( mph kmh ) Pressure ( in mb ) Visibility ( mi km ) Precip ( " mm )
12:53 am 00:53 Clear 35 1.7 14 -10 42 42 NW 3 6 30.18 1022 10 16 0.00 0.00
1:53 am 01:53 Clear 35 1.7 12 -11.1 38 38 NW 5 7 30.17 1022 10 16 0.00 0.00
2:53 am 02:53 Clear 34 1.1 12 -11.1 40 40 NW 5 7 30.16 1021 10 16 0.00 0.00
3:53 am 03:53 Clear 33 0.6 11 -11.7 40 40 NNW 5 7 30.15 1021 10 16 0.00 0.00
4:53 am 04:53 Clear 33 0.6 12 -11.1 42 42 W 6 9 30.15 1021 10 16 0.00 0.00
5:53 am 05:53 Clear 33 0.6 12 -11.1 42 42 WNW 6 9 30.16 1021 10 16 0.00 0.00
6:53 am 06:53 Sunny 33 0.6 11 -11.7 40 40 NW 5 7 30.17 1022 10 16 0.00 0.00
7:53 am 07:53 Sunny 37 2.8 13 -10.6 37 37 WNW 5 7 30.18 1022 10 16 0.00 0.00
8:53 am 08:53 Sunny 41 5 14 -10 33 33 Calm 30.18 1022 10 16 0.00 0.00
9:53 am 09:53 Sunny 45 7.2 11 -11.7 25 25 SSE 5 7 30.18 1022 10 16 0.00 0.00
10:53 am 10:53 Sunny 48 8.9 11 -11.7 22 22 SE 3 6 30.16 1021 10 16 0.00 0.00
11:53 am 11:53 Sunny 49 9.4 12 -11.1 22 22 Calm 30.13 1020 10 16 0.00 0.00
12:53 pm 12:53 Sunny 51 10.6 13 -10.6 22 22 VRB 3 6 30.09 1019 10 16 0.00 0.00
1:53 pm 13:53 Sunny 53 11.7 14 -10 21 21 SE 8 13 30.06 1018 10 16 0.00 0.00
2:53 pm 14:53 Sunny 54 12.2 14 -10 20 20 SSE 6 9 30.06 1018 10 16 0.00 0.00
3:53 pm 15:53 Sunny 53 11.7 14 -10 21 21 SE 7 11 30.06 1018 10 16 0.00 0.00
4:53 pm 16:53 Clear 51 10.6 15 -9.4 24 24 S 5 7 30.06 1018 10 16 0.00 0.00
5:53 pm 17:53 Clear 49 9.4 14 -10 25 25 S 5 7 30.08 1019 10 16 0.00 0.00
6:53 pm 18:53 Clear 47 8.3 15 -9.4 28 28 WSW 3 6 30.09 1019 10 16 0.00 0.00
7:53 pm 19:53 Clear 44 6.7 16 -8.9 32 32 N 3 6 30.09 1019 9 14 0.00 0.00
8:53 pm 20:53 Clear 42 5.6 17 -8.3 36 36 W 3 6 30.09 1019 10 16 0.00 0.00
9:53 pm 21:53 Clear 41 5 17 -8.3 38 38 WNW 3 6 30.09 1019 10 16 0.00 0.00
10:53 pm 22:53 Clear 39 3.9 17 -8.3 41 41 NW 3 6 30.09 1019 10 16 0.00 0.00
11:53 pm 23:53 Clear 38 3.3 18 -7.8 44 44 WNW 3 6 30.09 1019 10 16 0.00 0.00

Powered by AerisWeather